CAPE
0 0 0 0 0 0 0 0 0 0 0 0 0 0 0 0 0 0 0 0 0 0
0 0 0 0 0 0 0 0 0 0 0 0 0 0 0 0 0 0 0 0 0 0
0 0 0 0 0 0 0 0 0 0 0 0 0 0 0 0 0 0 0 0 0 0
0 0 0 0 0 0 0 0 0 0 0 0 0 0 0 0 0 0 0 0 0 0
0 0 0 0 0 0 0 0 0 0 0 0 0 0 0 0 0 0 0 0 0 0
0 0 0 0 0 0 0 0 0 0 0 0 0 0 0 0 0 0 0 0 0 0
12 0 0 0 0 0 0 0 0 0 0 0 0 0 0 0 0 0 0 0 0 0
62 19 0 0 0 0 0 0 0 0 0 0 0 0 0 0 0 0 0 0 0 0
0 6 7 0 0 0 0 0 0 0 0 0 0 0 0 0 0 0 0 0 0 0
0 0 0 0 0 0 0 0 0 0 0 0 0 0 0 0 0 0 0 0 0 0
0 0 0 0 0 0 0 0 0 0 0 0 0 0 0 0 0 0 0 0 0 0
0 0 0 1 0 0 0 0 0 0 0 0 0 0 0 0 0 0 0 0 0 0
0 0 0 0 0 0 0 0 0 0 0 0 0 0 0 0 0 0 0 0 0 0
0 0 0 0 0 0 0 0 0 0 0 0 0 0 2 0 0 0 0 0 0 0
CIN
0 0 0 0 0 0 0 0 0 0 0 0 0 0 0 0 0 0 0 0 0 0
0 0 0 0 0 0 0 0 0 0 0 0 0 0 0 0 0 0 0 0 0 0
0 0 0 0 0 0 0 0 0 0 0 0 0 0 0 0 0 0 0 0 0 0
0 0 0 0 0 0 0 0 0 0 0 0 0 0 0 0 0 0 0 0 0 0
-60 0 0 0 0 0 0 0 0 0 0 0 0 0 0 0 0 0 0 0 0 0
-51 0 0 0 0 0 0 0 0 0 0 0 0 0 0 0 0 0 0 0 0 0
-405 0 0 0 0 0 0 0 0 0 0 0 0 0 0 0 0 0 0 0 0 0
-225 -315 0 0 0 0 0 0 0 0 0 0 0 0 0 0 0 0 0 0 0 0
0 -347 -358 0 0 0 0 0 0 0 0 0 0 0 0 0 0 0 0 0 0 0
0 0 0 0 0 0 0 0 0 0 0 0 0 0 0 0 0 0 0 0 0 0
0 0 0 0 0 0 0 0 0 0 0 0 0 0 0 0 0 0 0 0 0 0
0 0 0 0 0 0 0 0 0 0 0 0 0 0 0 0 0 0 0 0 0 0
0 0 0 0 0 0 0 0 0 0 0 0 0 0 0 0 0 0 0 0 0 0
0 0 0 0 0 0 0 0 0 0 0 0 0 0 0 0 0 0 0 0 0 0
Wind_Speed
14 10 9 10 8 8 8 8 8 7 7 7 7 6 6 4 4 6 5 7 4 3
13 13 11 12 11 9 9 7 10 9 9 8 8 8 7 5 6 6 5 6 6 5
14 14 12 11 13 12 11 11 10 9 9 9 9 9 8 6 6 7 4 4 6 4
14 14 13 12 14 14 13 14 14 14 12 12 11 9 9 7 8 8 7 6 6 6
14 13 13 13 15 14 14 14 15 15 14 14 13 12 12 11 10 11 10 9 8 7
12 13 15 14 13 13 14 14 14 14 15 15 14 14 12 13 12 11 10 10 9 8
14 13 13 12 12 12 14 13 14 15 15 16 15 13 12 11 10 9 8 8 8 9
11 12 13 13 13 11 11 11 13 14 13 12 11 11 14 13 12 12 9 7 7 6
5 6 10 13 15 15 15 14 12 13 14 14 11 18 22 18 14 13 13 12 8 8
3 5 6 6 11 15 15 11 14 13 12 12 12 19 20 18 10 11 11 12 11 9
6 7 4 5 6 8 9 14 13 12 12 11 9 21 24 23 14 10 10 11 13 12
5 5 4 5 5 4 5 6 8 9 11 11 10 19 22 19 14 13 13 9 9 8
5 5 6 5 5 3 4 6 5 8 10 12 12 23 24 16 10 14 9 11 11 17
5 5 5 4 3 4 5 7 7 8 7 11 14 18 25 25 14 12 12 11 10 8
Wind_Direction
182 186 189 187 180 186 185 182 177 181 163 165 160 156 151 144 147 142 140 142 134 132
186 188 192 186 182 184 180 179 181 179 171 164 162 161 157 155 153 151 155 154 147 139
194 197 191 181 184 188 184 184 178 178 172 169 166 163 159 161 163 153 160 156 150 141
200 199 194 186 188 189 184 186 187 184 176 173 172 172 167 168 166 164 162 152 157 161
200 199 199 197 192 189 190 187 188 187 186 182 180 178 176 174 179 174 174 173 161 162
205 204 206 203 195 192 192 191 190 189 184 187 184 177 182 180 179 181 177 170 164 163
203 202 205 203 199 192 194 191 190 189 190 192 183 183 175 173 175 173 167 162 163 163
211 210 200 195 194 195 195 196 193 187 190 185 184 178 177 177 177 167 155 150 152 156
200 205 210 203 203 203 200 193 185 194 189 184 187 188 184 174 171 163 160 157 135 126
243 218 234 227 206 202 202 187 189 182 184 193 202 177 177 168 164 156 158 153 146 141
320 312 273 215 211 191 182 188 185 183 186 181 183 169 166 157 142 142 148 149 147 138
282 269 265 239 203 172 176 166 175 173 161 172 156 165 164 153 138 140 132 129 118 126
244 232 236 230 210 180 182 171 165 157 156 162 156 157 158 148 141 140 134 137 144 158
247 236 230 207 186 166 156 149 159 153 163 159 164 167 165 159 159 164 155 155 156 168